Time,TemperatureF,DewpointF,PressureIn,WindDirection,WindDirectionDegrees,WindSpeedMPH,WindSpeedGustMPH,Humidity,HourlyPrecipIn,Conditions,Clouds,dailyrainin,SoftwareType,DateUTC
2013-01-23 00:03:00,51.9,27.7,30.28,SW,225,0.0,1.2,39,0.00,CLR,SCT,0.00,WeatherDisplay:10.37,2013-01-23 07:03:00,
2013-01-23 00:08:00,51.9,27.7,30.27,SW,225,0.0,0.0,39,0.00,CLR,SCT,0.00,WeatherDisplay:10.37,2013-01-23 07:08:00,
2013-01-23 00:13:00,52.0,27.8,30.28,SW,225,0.0,0.0,39,0.00,CLR,SCT,0.00,WeatherDisplay:10.37,2013-01-23 07:13:00,
2013-01-23 00:18:00,51.9,27.7,30.28,SW,225,0.0,1.2,39,0.00,CLR,SCT,0.00,WeatherDisplay:10.37,2013-01-23 07:18:00,
2013-01-23 00:23:00,51.6,27.4,30.27,SW,225,0.1,0.0,39,0.00,CLR,SCT,0.00,WeatherDisplay:10.37,2013-01-23 07:23:00,
2013-01-23 00:28:00,51.6,27.4,30.27,SW,226,0.0,1.2,39,0.00,CLR,SCT,0.00,WeatherDisplay:10.37,2013-01-23 07:28:00,
2013-01-23 00:33:00,51.5,27.3,30.28,SW,226,0.0,0.0,39,0.00,CLR,SCT,0.00,WeatherDisplay:10.37,2013-01-23 07:33:00,
2013-01-23 00:38:00,51.8,27.0,30.28,SW,226,0.0,1.2,38,0.00,CLR,SCT,0.00,WeatherDisplay:10.37,2013-01-23 07:38:00,
2013-01-23 00:43:00,52.0,27.1,30.27,SW,226,0.0,0.0,38,0.00,CLR,SCT,0.00,WeatherDisplay:10.37,2013-01-23 07:43:00,
2013-01-23 00:48:00,52.0,27.1,30.28,SW,226,0.3,2.3,38,0.00,CLR,SCT,0.00,WeatherDisplay:10.37,2013-01-23 07:48:00,
2013-01-23 00:53:00,51.8,27.0,30.27,SW,226,0.0,0.0,38,0.00,CLR,SCT,0.00,WeatherDisplay:10.37,2013-01-23 07:53:00,
2013-01-23 00:58:00,51.6,27.4,30.27,SW,226,0.0,0.0,39,0.00,CLR,SCT,0.00,WeatherDisplay:10.37,2013-01-23 07:58:00,
2013-01-23 01:03:00,51.4,27.2,30.27,SW,226,0.0,0.0,39,0.00,CLR,SCT,0.00,WeatherDisplay:10.37,2013-01-23 08:03:00,
2013-01-23 01:08:00,51.3,27.2,30.27,SW,226,0.0,1.2,39,0.00,CLR,SCT,0.00,WeatherDisplay:10.37,2013-01-23 08:08:00,
2013-01-23 01:13:00,51.2,27.1,30.27,SW,226,0.1,1.2,39,0.00,CLR,SCT,0.00,WeatherDisplay:10.37,2013-01-23 08:13:00,
2013-01-23 01:18:00,51.1,27.0,30.28,SW,226,0.1,1.2,39,0.00,CLR,SCT,0.00,WeatherDisplay:10.37,2013-01-23 08:18:00,
2013-01-23 01:23:00,51.0,26.9,30.27,SW,226,0.0,0.0,39,0.00,CLR,SCT,0.00,WeatherDisplay:10.37,2013-01-23 08:23:00,
2013-01-23 01:28:00,50.7,27.2,30.28,SW,226,0.0,1.2,40,0.00,CLR,SCT,0.00,WeatherDisplay:10.37,2013-01-23 08:28:00,
2013-01-23 01:33:00,50.6,27.1,30.28,SW,226,0.0,0.0,40,0.00,CLR,SCT,0.00,WeatherDisplay:10.37,2013-01-23 08:33:00,
2013-01-23 01:38:00,50.5,27.0,30.28,SW,226,0.0,0.0,40,0.00,CLR,SCT,0.00,WeatherDisplay:10.37,2013-01-23 08:38:00,
2013-01-23 01:43:00,50.5,27.0,30.28,SW,226,0.0,0.0,40,0.00,CLR,SCT,0.00,WeatherDisplay:10.37,2013-01-23 08:43:00,
2013-01-23 01:48:00,50.2,27.4,30.28,SW,226,0.0,0.0,41,0.00,CLR,SCT,0.00,WeatherDisplay:10.37,2013-01-23 08:48:00,
2013-01-23 01:53:00,49.7,26.9,30.28,SW,226,0.0,0.0,41,0.00,CLR,SCT,0.00,WeatherDisplay:10.37,2013-01-23 08:53:00,
2013-01-23 01:58:00,49.2,27.1,30.28,SW,226,0.0,0.0,42,0.00,CLR,SCT,0.00,WeatherDisplay:10.37,2013-01-23 08:58:00,
2013-01-23 02:03:00,49.1,27.5,30.28,SW,226,0.0,0.0,43,0.00,CLR,SCT,0.00,WeatherDisplay:10.37,2013-01-23 09:03:00,
2013-01-23 02:08:00,49.1,27.5,30.28,SW,226,0.0,0.0,43,0.00,CLR,SCT,0.00,WeatherDisplay:10.37,2013-01-23 09:08:00,
2013-01-23 02:13:00,48.6,27.6,30.28,SW,226,0.0,0.0,44,0.00,CLR,SCT,0.00,WeatherDisplay:10.37,2013-01-23 09:13:00,
2013-01-23 02:19:00,48.1,27.7,30.28,SW,226,0.0,0.0,45,0.00,CLR,SCT,0.00,WeatherDisplay:10.37,2013-01-23 09:19:00,
2013-01-23 02:24:00,47.5,27.2,30.28,SW,226,0.0,0.0,45,0.00,CLR,SCT,0.00,WeatherDisplay:10.37,2013-01-23 09:24:00,
2013-01-23 02:29:00,46.7,28.5,30.28,SW,226,0.0,0.0,49,0.00,CLR,SCT,0.00,WeatherDisplay:10.37,2013-01-23 09:29:00,
2013-01-23 02:34:00,45.7,27.1,30.28,SW,226,0.0,0.0,48,0.00,CLR,SCT,0.00,WeatherDisplay:10.37,2013-01-23 09:34:00,
2013-01-23 02:39:00,44.8,27.3,30.28,SW,226,0.0,0.0,50,0.00,CLR,SCT,0.00,WeatherDisplay:10.37,2013-01-23 09:39:00,
2013-01-23 02:44:00,44.2,27.2,30.28,SW,226,0.0,0.0,51,0.00,CLR,SCT,0.00,WeatherDisplay:10.37,2013-01-23 09:44:00,
2013-01-23 02:49:00,43.9,27.4,30.28,SW,226,0.0,0.0,52,0.00,CLR,SCT,0.00,WeatherDisplay:10.37,2013-01-23 09:49:00,
2013-01-23 02:54:00,43.5,27.5,30.28,SW,226,0.0,0.0,53,0.00,CLR,SCT,0.00,WeatherDisplay:10.37,2013-01-23 09:54:00,
2013-01-23 02:59:00,43.2,27.7,30.28,SW,226,0.0,0.0,54,0.00,CLR,SCT,0.00,WeatherDisplay:10.37,2013-01-23 09:59:00,
2013-01-23 03:04:00,42.9,27.8,30.28,SW,226,0.0,0.0,55,0.00,CLR,SCT,0.00,WeatherDisplay:10.37,2013-01-23 10:04:00,
2013-01-23 03:09:00,42.7,27.6,30.29,SW,226,0.0,0.0,55,0.00,CLR,SCT,0.00,WeatherDisplay:10.37,2013-01-23 10:09:00,
2013-01-23 03:15:00,42.5,27.5,30.29,SW,226,0.0,0.0,55,0.00,CLR,SCT,0.00,WeatherDisplay:10.37,2013-01-23 10:15:00,
2013-01-23 03:20:00,42.6,27.5,30.29,SW,226,0.0,0.0,55,0.00,CLR,SCT,0.00,WeatherDisplay:10.37,2013-01-23 10:20:00,
2013-01-23 03:25:00,42.6,28.0,30.29,SW,226,0.0,0.0,56,0.00,CLR,SCT,0.00,WeatherDisplay:10.37,2013-01-23 10:25:00,
2013-01-23 03:30:00,42.5,27.9,30.29,SW,226,0.0,0.0,56,0.00,CLR,SCT,0.00,WeatherDisplay:10.37,2013-01-23 10:30:00,
2013-01-23 03:35:00,42.4,27.8,30.29,SW,226,0.0,0.0,56,0.00,CLR,SCT,0.00,WeatherDisplay:10.37,2013-01-23 10:35:00,
2013-01-23 03:40:00,42.7,28.1,30.28,SW,226,0.0,0.0,56,0.00,CLR,SCT,0.00,WeatherDisplay:10.37,2013-01-23 10:40:00,
2013-01-23 03:45:00,42.6,28.0,30.29,SW,226,0.0,0.0,56,0.00,CLR,SCT,0.00,WeatherDisplay:10.37,2013-01-23 10:45:00,
2013-01-23 03:50:00,42.2,27.6,30.28,SW,226,0.0,0.0,56,0.00,CLR,SCT,0.00,WeatherDisplay:10.37,2013-01-23 10:50:00,
2013-01-23 03:55:00,41.9,27.3,30.29,SW,226,0.0,0.0,56,0.00,CLR,SCT,0.00,WeatherDisplay:10.37,2013-01-23 10:55:00,
2013-01-23 04:00:00,41.7,27.6,30.28,SW,226,0.0,0.0,57,0.00,CLR,SCT,0.00,WeatherDisplay:10.37,2013-01-23 11:00:00,
2013-01-23 04:05:00,41.9,27.8,30.28,SW,226,0.0,0.0,57,0.00,CLR,SCT,0.00,WeatherDisplay:10.37,2013-01-23 11:05:00,
2013-01-23 04:10:00,42.0,27.9,30.28,SW,226,0.0,0.0,57,0.00,CLR,SCT,0.00,WeatherDisplay:10.37,2013-01-23 11:10:00,
2013-01-23 04:15:00,42.0,28.3,30.28,SW,226,0.0,0.0,58,0.00,CLR,SCT,0.00,WeatherDisplay:10.37,2013-01-23 11:15:00,
2013-01-23 04:20:00,42.0,27.9,30.29,SW,226,0.0,0.0,57,0.00,CLR,SCT,0.00,WeatherDisplay:10.37,2013-01-23 11:20:00,
2013-01-23 04:25:00,42.0,27.9,30.28,SW,226,0.0,0.0,57,0.00,CLR,SCT,0.00,WeatherDisplay:10.37,2013-01-23 11:25:00,
2013-01-23 04:30:00,42.6,28.0,30.28,SW,226,0.0,0.0,56,0.00,CLR,SCT,0.00,WeatherDisplay:10.37,2013-01-23 11:30:00,
2013-01-23 04:35:00,43.0,27.9,30.28,SW,226,0.0,0.0,55,0.00,CLR,SCT,0.00,WeatherDisplay:10.37,2013-01-23 11:35:00,
2013-01-23 04:40:00,43.1,27.6,30.28,SW,226,0.0,0.0,54,0.00,CLR,SCT,0.00,WeatherDisplay:10.37,2013-01-23 11:40:00,
2013-01-23 04:45:00,43.2,27.2,30.28,SW,226,0.0,0.0,53,0.00,CLR,SCT,0.00,WeatherDisplay:10.37,2013-01-23 11:45:00,
2013-01-23 04:50:00,43.2,27.2,30.28,SW,226,0.0,0.0,53,0.00,CLR,SCT,0.00,WeatherDisplay:10.37,2013-01-23 11:50:00,
2013-01-23 04:55:00,43.2,27.7,30.28,SW,226,0.0,0.0,54,0.00,CLR,SCT,0.00,WeatherDisplay:10.37,2013-01-23 11:55:00,
2013-01-23 05:00:00,42.8,27.3,30.29,SW,226,0.0,0.0,54,0.00,CLR,SCT,0.00,WeatherDisplay:10.37,2013-01-23 12:00:00,
2013-01-23 05:05:00,42.0,27.0,30.29,SW,226,0.0,0.0,55,0.00,CLR,SCT,0.00,WeatherDisplay:10.37,2013-01-23 12:05:00,
2013-01-23 05:10:00,41.6,27.5,30.29,SW,226,0.0,0.0,57,0.00,CLR,SCT,0.00,WeatherDisplay:10.37,2013-01-23 12:10:00,
2013-01-23 05:15:00,41.5,27.4,30.29,SW,226,0.0,0.0,57,0.00,CLR,SCT,0.00,WeatherDisplay:10.37,2013-01-23 12:15:00,
2013-01-23 05:20:00,41.3,27.2,30.28,SW,226,0.0,0.0,57,0.00,CLR,SCT,0.00,WeatherDisplay:10.37,2013-01-23 12:20:00,
2013-01-23 05:25:00,40.9,27.2,30.29,SW,226,0.0,0.0,58,0.00,CLR,SCT,0.00,WeatherDisplay:10.37,2013-01-23 12:25:00,
2013-01-23 05:30:00,40.3,27.1,30.28,SW,226,0.0,0.0,59,0.00,CLR,SCT,0.00,WeatherDisplay:10.37,2013-01-23 12:30:00,
2013-01-23 05:35:00,40.0,27.2,30.29,SW,226,0.0,1.2,60,0.00,CLR,SCT,0.00,WeatherDisplay:10.37,2013-01-23 12:35:00,
2013-01-23 05:40:00,40.0,27.6,30.29,SW,226,0.0,0.0,61,0.00,CLR,SCT,0.00,WeatherDisplay:10.37,2013-01-23 12:40:00,
2013-01-23 05:45:00,40.1,27.3,30.29,SW,226,0.0,0.0,60,0.00,CLR,SCT,0.00,WeatherDisplay:10.37,2013-01-23 12:45:00,
2013-01-23 05:50:00,40.1,27.7,30.29,SW,226,0.0,0.0,61,0.00,CLR,SCT,0.00,WeatherDisplay:10.37,2013-01-23 12:50:00,
2013-01-23 05:55:00,40.1,27.3,30.29,SW,226,0.0,0.0,60,0.00,CLR,SCT,0.00,WeatherDisplay:10.37,2013-01-23 12:55:00,
2013-01-23 06:00:00,39.8,27.0,30.29,SW,226,0.0,0.0,60,0.00,CLR,SCT,0.00,WeatherDisplay:10.37,2013-01-23 13:00:00,
2013-01-23 06:05:00,39.2,27.3,30.29,SW,226,0.0,0.0,62,0.00,CLR,SCT,0.00,WeatherDisplay:10.37,2013-01-23 13:05:00,
2013-01-23 06:10:00,38.8,27.3,30.29,SW,226,0.0,0.0,63,0.00,CLR,SCT,0.00,WeatherDisplay:10.37,2013-01-23 13:10:00,
2013-01-23 06:15:00,38.6,27.5,30.29,SW,226,0.0,0.0,64,0.00,CLR,SCT,0.00,WeatherDisplay:10.37,2013-01-23 13:15:00,
2013-01-23 06:20:00,38.5,27.4,30.29,SW,226,0.0,0.0,64,0.00,CLR,SCT,0.00,WeatherDisplay:10.37,2013-01-23 13:20:00,
2013-01-23 06:25:00,38.4,27.7,30.29,SW,226,0.0,0.0,65,0.00,CLR,SCT,0.00,WeatherDisplay:10.37,2013-01-23 13:25:00,
2013-01-23 06:30:00,38.4,27.3,30.29,SW,226,0.0,0.0,64,0.00,CLR,SCT,0.00,WeatherDisplay:10.37,2013-01-23 13:30:00,
2013-01-23 06:35:00,38.2,27.5,30.29,SW,226,0.0,0.0,65,0.00,CLR,SCT,0.00,WeatherDisplay:10.37,2013-01-23 13:35:00,
2013-01-23 06:40:00,37.9,27.5,30.29,SW,226,0.0,0.0,66,0.00,CLR,SCT,0.00,WeatherDisplay:10.37,2013-01-23 13:40:00,
2013-01-23 06:45:00,37.9,27.5,30.30,SW,226,0.0,0.0,66,0.00,CLR,SCT,0.00,WeatherDisplay:10.37,2013-01-23 13:45:00,
2013-01-23 06:50:00,37.8,27.5,30.30,SW,226,0.0,0.0,66,0.00,CLR,SCT,0.00,WeatherDisplay:10.37,2013-01-23 13:50:00,
2013-01-23 06:55:00,37.9,27.9,30.30,SW,226,0.0,0.0,67,0.00,CLR,SCT,0.00,WeatherDisplay:10.37,2013-01-23 13:55:00,
2013-01-23 07:00:00,37.9,27.5,30.30,SW,226,0.0,0.0,66,0.00,CLR,SCT,0.00,WeatherDisplay:10.37,2013-01-23 14:00:00,
2013-01-23 07:05:00,37.6,27.3,30.30,SW,226,0.0,0.0,66,0.00,CLR,SCT,0.00,WeatherDisplay:10.37,2013-01-23 14:05:00,
2013-01-23 07:10:00,37.4,27.4,30.30,SW,226,0.0,0.0,67,0.00,CLR,SCT,0.00,WeatherDisplay:10.37,2013-01-23 14:10:00,
2013-01-23 07:15:00,37.5,27.5,30.31,SW,226,0.0,0.0,67,0.00,CLR,SCT,0.00,WeatherDisplay:10.37,2013-01-23 14:15:00,
2013-01-23 07:20:00,37.5,27.2,30.31,SW,226,0.0,0.0,66,0.00,CLR,SCT,0.00,WeatherDisplay:10.37,2013-01-23 14:20:00,
2013-01-23 07:25:00,37.7,27.7,30.31,SW,226,0.0,0.0,67,0.00,CLR,SCT,0.00,WeatherDisplay:10.37,2013-01-23 14:25:00,
2013-01-23 07:30:00,37.9,27.5,30.31,SW,226,0.0,0.0,66,0.00,CLR,SCT,0.00,WeatherDisplay:10.37,2013-01-23 14:30:00,
2013-01-23 07:35:00,38.1,27.7,30.31,SW,226,0.0,0.0,66,0.00,CLR,SCT,0.00,WeatherDisplay:10.37,2013-01-23 14:35:00,
2013-01-23 07:40:00,38.4,28.0,30.31,SW,226,0.0,0.0,66,0.00,CLR,SCT,0.00,WeatherDisplay:10.37,2013-01-23 14:40:00,
2013-01-23 07:45:00,38.9,28.1,30.31,SW,226,0.0,0.0,65,0.00,CLR,SCT,0.00,WeatherDisplay:10.37,2013-01-23 14:45:00,
2013-01-23 07:50:00,44.8,28.2,30.31,SW,224,1.2,2.3,52,0.00,CLR,SCT,0.00,WeatherDisplay:10.37,2013-01-23 14:50:00,
2013-01-23 07:55:00,46.3,29.6,30.31,SSW,202,2.6,3.5,52,0.00,CLR,SCT,0.00,WeatherDisplay:10.37,2013-01-23 14:55:00,
2013-01-23 08:00:00,49.1,30.2,30.32,SSW,202,4.1,4.6,48,0.00,CLR,SCT,0.00,WeatherDisplay:10.37,2013-01-23 15:00:00,
2013-01-23 08:05:00,51.2,30.0,30.32,South,190,2.9,3.5,44,0.00,CLR,SCT,0.00,WeatherDisplay:10.37,2013-01-23 15:05:00,
2013-01-23 08:10:00,53.0,29.9,30.32,SSE,165,2.9,3.5,41,0.00,CLR,SCT,0.00,WeatherDisplay:10.37,2013-01-23 15:10:00,
2013-01-23 08:15:00,55.0,29.8,30.32,SSE,167,2.5,3.5,38,0.00,CLR,SCT,0.00,WeatherDisplay:10.37,2013-01-23 15:15:00,
2013-01-23 08:20:00,56.3,29.0,30.32,SSE,148,2.2,3.5,35,0.00,CLR,SCT,0.00,WeatherDisplay:10.37,2013-01-23 15:20:00,
2013-01-23 08:25:00,57.3,29.1,30.32,SSE,148,2.6,3.5,34,0.00,CLR,SCT,0.00,WeatherDisplay:10.37,2013-01-23 15:25:00,
2013-01-23 08:30:00,58.2,29.2,30.32,SE,135,1.3,2.3,33,0.00,CLR,SCT,0.00,WeatherDisplay:10.37,2013-01-23 15:30:00,
2013-01-23 08:35:00,56.4,30.4,30.32,East,91,0.8,1.2,37,0.00,CLR,SCT,0.00,WeatherDisplay:10.37,2013-01-23 15:35:00,
2013-01-23 08:40:00,54.6,30.1,30.32,East,88,0.7,1.2,39,0.00,CLR,SCT,0.00,WeatherDisplay:10.37,2013-01-23 15:40:00,
2013-01-23 08:45:00,54.9,31.0,30.32,East,91,0.0,0.0,40,0.00,CLR,SCT,0.00,WeatherDisplay:10.37,2013-01-23 15:45:00,
2013-01-23 08:50:00,55.9,28.6,30.32,SE,131,0.8,2.3,35,0.00,CLR,SCT,0.00,WeatherDisplay:10.37,2013-01-23 15:50:00,
2013-01-23 08:55:00,56.8,28.0,30.32,SE,137,0.2,3.5,33,0.00,CLR,SCT,0.00,WeatherDisplay:10.37,2013-01-23 15:55:00,
2013-01-23 09:00:00,57.5,29.3,30.33,SSE,161,2.6,3.5,34,0.00,CLR,SCT,0.00,WeatherDisplay:10.37,2013-01-23 16:00:00,
2013-01-23 09:05:00,58.2,29.2,30.33,SSE,147,1.5,2.3,33,0.00,CLR,SCT,0.00,WeatherDisplay:10.37,2013-01-23 16:05:00,
2013-01-23 09:10:00,59.2,28.5,30.33,SSE,152,3.0,4.6,31,0.00,CLR,SCT,0.00,WeatherDisplay:10.37,2013-01-23 16:10:00,
2013-01-23 09:15:00,59.3,29.4,30.33,SE,145,1.4,3.5,32,0.00,CLR,SCT,0.00,WeatherDisplay:10.37,2013-01-23 16:15:00,
2013-01-23 09:20:00,60.2,28.6,30.33,South,171,0.8,3.5,30,0.00,CLR,SCT,0.00,WeatherDisplay:10.37,2013-01-23 16:20:00,
2013-01-23 09:25:00,60.6,29.0,30.33,South,186,0.9,3.5,30,0.00,CLR,SCT,0.00,WeatherDisplay:10.37,2013-01-23 16:25:00,
2013-01-23 09:30:00,61.0,28.5,30.33,SE,138,0.2,1.2,29,0.00,CLR,SCT,0.00,WeatherDisplay:10.37,2013-01-23 16:30:00,
2013-01-23 09:35:00,61.4,28.8,30.33,South,173,0.1,3.5,29,0.00,CLR,SCT,0.00,WeatherDisplay:10.37,2013-01-23 16:35:00,
2013-01-23 09:40:00,61.4,28.0,30.33,ESE,122,0.0,2.3,28,0.00,CLR,SCT,0.00,WeatherDisplay:10.37,2013-01-23 16:40:00,
2013-01-23 09:45:00,61.3,28.7,30.33,SSE,161,1.0,3.5,29,0.00,CLR,SCT,0.00,WeatherDisplay:10.37,2013-01-23 16:45:00,
2013-01-23 09:50:00,61.3,28.7,30.33,SSW,192,1.1,3.5,29,0.00,CLR,SCT,0.00,WeatherDisplay:10.37,2013-01-23 16:50:00,
2013-01-23 09:55:00,61.6,29.0,30.34,SSW,196,3.6,4.6,29,0.00,CLR,SCT,0.00,WeatherDisplay:10.37,2013-01-23 16:55:00,
2013-01-23 10:00:00,61.9,28.4,30.34,South,191,2.3,5.8,28,0.00,CLR,SCT,0.00,WeatherDisplay:10.37,2013-01-23 17:00:00,
2013-01-23 10:05:00,62.0,27.6,30.34,SSE,157,1.6,2.3,27,0.00,CLR,SCT,0.00,WeatherDisplay:10.37,2013-01-23 17:05:00,
2013-01-23 10:10:00,61.9,28.4,30.34,SSE,167,2.0,3.5,28,0.00,CLR,SCT,0.00,WeatherDisplay:10.37,2013-01-23 17:10:00,
2013-01-23 10:15:00,61.8,28.3,30.34,South,187,0.8,3.5,28,0.00,CLR,SCT,0.00,WeatherDisplay:10.37,2013-01-23 17:15:00,
2013-01-23 10:20:00,62.3,27.9,30.34,SSE,167,1.4,4.0,27,0.00,CLR,SCT,0.00,WeatherDisplay:10.37,2013-01-23 17:20:00,
2013-01-23 10:25:00,62.7,28.2,30.34,South,188,2.3,4.6,27,0.00,CLR,SCT,0.00,WeatherDisplay:10.37,2013-01-23 17:25:00,
2013-01-23 10:30:00,63.2,28.6,30.34,SE,144,0.6,2.3,27,0.00,CLR,SCT,0.00,WeatherDisplay:10.37,2013-01-23 17:30:00,
2013-01-23 10:35:00,64.1,28.5,30.34,East,95,1.0,3.5,26,0.00,CLR,SCT,0.00,WeatherDisplay:10.37,2013-01-23 17:35:00,
2013-01-23 10:40:00,64.7,29.0,30.34,SE,144,0.2,2.0,26,0.00,CLR,SCT,0.00,WeatherDisplay:10.37,2013-01-23 17:40:00,
2013-01-23 10:45:00,65.4,28.6,30.34,SE,139,1.2,3.5,25,0.00,CLR,SCT,0.00,WeatherDisplay:10.37,2013-01-23 17:45:00,
2013-01-23 10:50:00,65.4,27.6,30.34,SE,138,0.4,2.3,24,0.00,CLR,SCT,0.00,WeatherDisplay:10.37,2013-01-23 17:50:00,
2013-01-23 10:55:00,65.5,28.7,30.34,SSE,148,1.5,3.5,25,0.00,CLR,SCT,0.00,WeatherDisplay:10.37,2013-01-23 17:55:00,
2013-01-23 11:00:00,65.5,28.7,30.34,SE,127,0.5,2.3,25,0.00,CLR,SCT,0.00,WeatherDisplay:10.37,2013-01-23 18:00:00,
2013-01-23 11:05:00,65.6,28.8,30.33,East,98,0.5,1.2,25,0.00,CLR,SCT,0.00,WeatherDisplay:10.37,2013-01-23 18:05:00,
2013-01-23 11:10:00,66.0,29.1,30.33,East,100,0.2,1.2,25,0.00,CLR,SCT,0.00,WeatherDisplay:10.37,2013-01-23 18:10:00,
2013-01-23 11:15:00,66.5,28.6,30.33,SSW,193,1.3,3.5,24,0.00,CLR,SCT,0.00,WeatherDisplay:10.37,2013-01-23 18:15:00,
2013-01-23 11:20:00,66.4,28.5,30.32,East,96,0.6,2.3,24,0.00,CLR,SCT,0.00,WeatherDisplay:10.37,2013-01-23 18:20:00,
2013-01-23 11:25:00,66.2,28.3,30.32,South,179,1.9,3.5,24,0.00,CLR,SCT,0.00,WeatherDisplay:10.37,2013-01-23 18:25:00,
2013-01-23 11:30:00,66.4,29.5,30.32,SE,128,0.6,2.3,25,0.00,CLR,SCT,0.00,WeatherDisplay:10.37,2013-01-23 18:30:00,
2013-01-23 11:35:00,66.8,28.8,30.32,East,94,1.0,3.5,24,0.00,CLR,SCT,0.00,WeatherDisplay:10.37,2013-01-23 18:35:00,
2013-01-23 11:40:00,66.7,28.7,30.32,SSE,168,1.3,3.5,24,0.00,CLR,SCT,0.00,WeatherDisplay:10.37,2013-01-23 18:40:00,
2013-01-23 11:45:00,66.8,28.8,30.31,SE,128,0.1,2.3,24,0.00,CLR,SCT,0.00,WeatherDisplay:10.37,2013-01-23 18:45:00,
2013-01-23 11:50:00,67.0,30.0,30.31,East,94,0.7,2.3,25,0.00,CLR,SCT,0.00,WeatherDisplay:10.37,2013-01-23 18:50:00,
2013-01-23 11:55:00,67.4,30.3,30.31,ESE,109,0.2,4.0,25,0.00,CLR,SCT,0.00,WeatherDisplay:10.37,2013-01-23 18:55:00,
2013-01-23 12:00:00,68.1,29.9,30.31,SSE,155,0.2,3.0,24,0.00,CLR,SCT,0.00,WeatherDisplay:10.37,2013-01-23 19:00:00,
2013-01-23 12:05:00,69.1,30.8,30.30,SE,127,0.0,1.2,24,0.00,CLR,SCT,0.00,WeatherDisplay:10.37,2013-01-23 19:05:00,
2013-01-23 12:10:00,69.9,30.4,30.30,ESE,108,0.2,1.2,23,0.00,CLR,SCT,0.00,WeatherDisplay:10.37,2013-01-23 19:10:00,
2013-01-23 12:15:00,70.3,29.6,30.29,SE,140,0.9,3.5,22,0.00,CLR,SCT,0.00,WeatherDisplay:10.37,2013-01-23 19:15:00,
2013-01-23 12:20:00,69.7,30.2,30.29,SE,133,0.1,1.2,23,0.00,CLR,SCT,0.00,WeatherDisplay:10.37,2013-01-23 19:20:00,
2013-01-23 12:25:00,69.4,30.0,30.29,SE,144,0.3,1.2,23,0.00,CLR,SCT,0.00,WeatherDisplay:10.37,2013-01-23 19:25:00,
2013-01-23 12:30:00,69.7,30.2,30.28,SE,144,2.2,3.5,23,0.00,CLR,SCT,0.00,WeatherDisplay:10.37,2013-01-23 19:30:00,
2013-01-23 12:35:00,70.2,30.6,30.28,SE,133,1.5,4.6,23,0.00,CLR,SCT,0.00,WeatherDisplay:10.37,2013-01-23 19:35:00,
2013-01-23 12:40:00,70.8,30.0,30.28,SE,144,1.8,4.6,22,0.00,CLR,SCT,0.00,WeatherDisplay:10.37,2013-01-23 19:40:00,
2013-01-23 12:45:00,71.0,30.2,30.27,ESE,113,1.4,4.6,22,0.00,CLR,SCT,0.00,WeatherDisplay:10.37,2013-01-23 19:45:00,
2013-01-23 12:50:00,71.0,30.2,30.27,SE,144,1.1,6.0,22,0.00,CLR,SCT,0.00,WeatherDisplay:10.37,2013-01-23 19:50:00,
2013-01-23 12:55:00,70.6,29.9,30.27,ENE,78,0.3,3.5,22,0.00,CLR,SCT,0.00,WeatherDisplay:10.37,2013-01-23 19:55:00,
2013-01-23 13:00:00,70.1,30.6,30.27,SSE,159,1.0,3.5,23,0.00,CLR,SCT,0.00,WeatherDisplay:10.37,2013-01-23 20:00:00,
2013-01-23 13:05:00,69.9,30.4,30.26,ESE,116,0.7,3.5,23,0.00,CLR,SCT,0.00,WeatherDisplay:10.37,2013-01-23 20:05:00,
2013-01-23 13:10:00,70.3,29.6,30.26,SE,133,1.2,4.0,22,0.00,CLR,SCT,0.00,WeatherDisplay:10.37,2013-01-23 20:10:00,
2013-01-23 13:15:00,70.6,29.9,30.26,ENE,71,2.9,5.8,22,0.00,CLR,SCT,0.00,WeatherDisplay:10.37,2013-01-23 20:15:00,
2013-01-23 13:20:00,70.5,30.9,30.26,ENE,61,0.6,4.0,23,0.00,CLR,SCT,0.00,WeatherDisplay:10.37,2013-01-23 20:20:00,
2013-01-23 13:25:00,70.5,30.9,30.26,East,92,0.5,3.0,23,0.00,CLR,SCT,0.00,WeatherDisplay:10.37,2013-01-23 20:25:00,
2013-01-23 13:30:00,70.4,29.7,30.25,East,92,0.0,1.2,22,0.00,CLR,SCT,0.00,WeatherDisplay:10.37,2013-01-23 20:30:00,
2013-01-23 13:35:00,70.5,29.8,30.25,South,172,0.7,3.5,22,0.00,CLR,SCT,0.00,WeatherDisplay:10.37,2013-01-23 20:35:00,
2013-01-23 13:40:00,70.7,30.0,30.25,East,87,0.9,4.6,22,0.00,CLR,SCT,0.00,WeatherDisplay:10.37,2013-01-23 20:40:00,
2013-01-23 13:45:00,70.7,31.1,30.24,SE,130,0.0,1.2,23,0.00,CLR,SCT,0.00,WeatherDisplay:10.37,2013-01-23 20:45:00,
2013-01-23 13:50:00,71.0,30.2,30.25,SE,125,0.7,3.5,22,0.00,CLR,SCT,0.00,WeatherDisplay:10.37,2013-01-23 20:50:00,
2013-01-23 13:55:00,70.8,30.0,30.24,SE,141,1.0,3.5,22,0.00,CLR,SCT,0.00,WeatherDisplay:10.37,2013-01-23 20:55:00,
2013-01-23 14:00:00,70.3,29.6,30.24,East,91,1.0,3.5,22,0.00,CLR,SCT,0.00,WeatherDisplay:10.37,2013-01-23 21:00:00,
2013-01-23 14:05:00,70.2,29.5,30.24,ESE,118,0.5,3.5,22,0.00,CLR,SCT,0.00,WeatherDisplay:10.37,2013-01-23 21:05:00,
2013-01-23 14:10:00,70.4,29.7,30.24,ESE,118,0.0,1.2,22,0.00,CLR,SCT,0.00,WeatherDisplay:10.37,2013-01-23 21:10:00,
2013-01-23 14:15:00,70.3,29.6,30.24,SE,124,0.5,3.5,22,0.00,CLR,SCT,0.00,WeatherDisplay:10.37,2013-01-23 21:15:00,
2013-01-23 14:20:00,70.2,29.5,30.24,ESE,109,0.0,1.2,22,0.00,CLR,SCT,0.00,WeatherDisplay:10.37,2013-01-23 21:20:00,
2013-01-23 14:25:00,70.1,30.6,30.24,ENE,69,0.5,3.5,23,0.00,CLR,SCT,0.00,WeatherDisplay:10.37,2013-01-23 21:25:00,
2013-01-23 14:30:00,69.8,29.2,30.24,ENE,67,0.9,3.5,22,0.00,CLR,SCT,0.00,WeatherDisplay:10.37,2013-01-23 21:30:00,
2013-01-23 14:35:00,69.5,30.0,30.24,ENE,69,0.1,1.2,23,0.00,CLR,SCT,0.00,WeatherDisplay:10.37,2013-01-23 21:35:00,
2013-01-23 14:40:00,69.4,30.0,30.24,ENE,71,0.0,0.0,23,0.00,CLR,SCT,0.00,WeatherDisplay:10.37,2013-01-23 21:40:00,
2013-01-23 14:45:00,69.5,30.0,30.23,ENE,71,0.0,1.2,23,0.00,CLR,SCT,0.00,WeatherDisplay:10.37,2013-01-23 21:45:00,
2013-01-23 14:50:00,69.8,29.2,30.24,ENE,72,0.0,1.2,22,0.00,CLR,SCT,0.00,WeatherDisplay:10.37,2013-01-23 21:50:00,
2013-01-23 14:55:00,70.2,29.5,30.23,ENE,71,0.8,3.5,22,0.00,CLR,SCT,0.00,WeatherDisplay:10.37,2013-01-23 21:55:00,
2013-01-23 15:00:00,70.3,29.6,30.24,ENE,74,0.1,1.2,22,0.00,CLR,SCT,0.00,WeatherDisplay:10.37,2013-01-23 22:00:00,
2013-01-23 15:05:00,70.8,30.0,30.24,East,87,1.5,3.5,22,0.00,CLR,SCT,0.00,WeatherDisplay:10.37,2013-01-23 22:05:00,
2013-01-23 15:11:00,71.5,30.6,30.23,ENE,71,0.8,5.8,22,0.00,CLR,SCT,0.00,WeatherDisplay:10.37,2013-01-23 22:11:00,
2013-01-23 15:16:00,71.6,29.6,30.23,East,79,0.2,1.2,21,0.00,CLR,SCT,0.00,WeatherDisplay:10.37,2013-01-23 22:16:00,
2013-01-23 15:21:00,71.4,30.5,30.23,East,96,0.4,1.2,22,0.00,CLR,SCT,0.00,WeatherDisplay:10.37,2013-01-23 22:21:00,
2013-01-23 15:26:00,71.6,30.7,30.23,ENE,63,1.8,3.5,22,0.00,CLR,SCT,0.00,WeatherDisplay:10.37,2013-01-23 22:26:00,
2013-01-23 15:31:00,71.9,29.8,30.23,ENE,69,0.6,3.5,21,0.00,CLR,SCT,0.00,WeatherDisplay:10.37,2013-01-23 22:31:00,
2013-01-23 15:36:00,72.0,31.0,30.23,ENE,73,2.8,3.5,22,0.00,CLR,SCT,0.00,WeatherDisplay:10.37,2013-01-23 22:36:00,
2013-01-23 15:41:00,72.0,29.9,30.23,ENE,76,2.0,3.5,21,0.00,CLR,SCT,0.00,WeatherDisplay:10.37,2013-01-23 22:41:00,
2013-01-23 15:46:00,71.9,29.8,30.23,East,86,0.5,4.6,21,0.00,CLR,SCT,0.00,WeatherDisplay:10.37,2013-01-23 22:46:00,
2013-01-23 15:51:00,71.8,29.7,30.23,SE,140,0.3,2.3,21,0.00,CLR,SCT,0.00,WeatherDisplay:10.37,2013-01-23 22:51:00,
2013-01-23 15:56:00,72.0,29.9,30.23,SSW,192,0.4,2.0,21,0.00,CLR,SCT,0.00,WeatherDisplay:10.37,2013-01-23 22:56:00,
2013-01-23 16:01:00,72.1,30.0,30.23,SSW,196,1.2,4.6,21,0.00,CLR,SCT,0.00,WeatherDisplay:10.37,2013-01-23 23:01:00,
2013-01-23 16:06:00,72.0,29.9,30.23,SE,129,2.2,3.5,21,0.00,CLR,SCT,0.00,WeatherDisplay:10.37,2013-01-23 23:06:00,
2013-01-23 16:11:00,71.9,29.8,30.23,South,174,0.7,3.5,21,0.00,CLR,SCT,0.00,WeatherDisplay:10.37,2013-01-23 23:11:00,
2013-01-23 16:16:00,71.6,29.6,30.23,ESE,117,1.1,3.5,21,0.00,CLR,SCT,0.00,WeatherDisplay:10.37,2013-01-23 23:16:00,
2013-01-23 16:21:00,71.3,29.3,30.23,East,100,3.1,9.0,21,0.00,CLR,SCT,0.00,WeatherDisplay:10.37,2013-01-23 23:21:00,
2013-01-23 16:26:00,71.1,30.3,30.22,South,172,3.4,4.6,22,0.00,CLR,SCT,0.00,WeatherDisplay:10.37,2013-01-23 23:26:00,
2013-01-23 16:31:00,70.9,30.1,30.23,SE,144,1.5,4.6,22,0.00,CLR,SCT,0.00,WeatherDisplay:10.37,2013-01-23 23:31:00,
2013-01-23 16:36:00,70.5,29.8,30.23,SE,146,0.7,3.5,22,0.00,CLR,SCT,0.00,WeatherDisplay:10.37,2013-01-23 23:36:00,
2013-01-23 16:41:00,70.4,29.7,30.22,SSE,154,0.7,4.6,22,0.00,CLR,SCT,0.00,WeatherDisplay:10.37,2013-01-23 23:41:00,
2013-01-23 16:46:00,70.3,30.7,30.23,SSE,158,1.6,3.5,23,0.00,CLR,SCT,0.00,WeatherDisplay:10.37,2013-01-23 23:46:00,
2013-01-23 16:51:00,70.1,30.6,30.23,SSE,157,2.5,3.5,23,0.00,CLR,SCT,0.00,WeatherDisplay:10.37,2013-01-23 23:51:00,
2013-01-23 16:56:00,69.9,30.4,30.22,SSE,148,0.2,4.6,23,0.00,CLR,SCT,0.00,WeatherDisplay:10.37,2013-01-23 23:56:00,
2013-01-23 17:01:00,69.4,30.0,30.23,SE,142,0.0,0.0,23,0.00,CLR,SCT,0.00,WeatherDisplay:10.37,2013-01-24 00:01:00,
2013-01-23 17:06:00,68.8,30.5,30.23,SE,142,0.2,1.2,24,0.00,CLR,SCT,0.00,WeatherDisplay:10.37,2013-01-24 00:06:00,
2013-01-23 17:11:00,68.2,30.0,30.23,SSE,148,0.0,0.0,24,0.00,CLR,SCT,0.00,WeatherDisplay:10.37,2013-01-24 00:11:00,
2013-01-23 17:16:00,67.7,30.6,30.23,SSE,148,0.0,0.0,25,0.00,CLR,SCT,0.00,WeatherDisplay:10.37,2013-01-24 00:16:00,
2013-01-23 17:21:00,67.1,30.1,30.23,SE,145,0.5,3.5,25,0.00,CLR,SCT,0.00,WeatherDisplay:10.37,2013-01-24 00:21:00,
2013-01-23 17:26:00,66.6,30.6,30.23,SE,145,0.0,0.0,26,0.00,CLR,SCT,0.00,WeatherDisplay:10.37,2013-01-24 00:26:00,
2013-01-23 17:31:00,66.0,30.1,30.23,SE,145,0.0,0.0,26,0.00,CLR,SCT,0.00,WeatherDisplay:10.37,2013-01-24 00:31:00,
2013-01-23 17:36:00,65.2,30.3,30.23,SE,145,0.1,1.2,27,0.00,CLR,SCT,0.00,WeatherDisplay:10.37,2013-01-24 00:36:00,
2013-01-23 17:41:00,64.5,29.7,30.23,SE,145,0.0,0.0,27,0.00,CLR,SCT,0.00,WeatherDisplay:10.37,2013-01-24 00:41:00,
2013-01-23 17:46:00,63.7,30.0,30.24,SE,145,0.0,0.0,28,0.00,CLR,SCT,0.00,WeatherDisplay:10.37,2013-01-24 00:46:00,
2013-01-23 17:51:00,62.6,29.9,30.24,SE,145,0.0,0.0,29,0.00,CLR,SCT,0.00,WeatherDisplay:10.37,2013-01-24 00:51:00,
2013-01-23 17:56:00,61.7,30.7,30.24,SE,145,0.0,1.2,31,0.00,CLR,SCT,0.00,WeatherDisplay:10.37,2013-01-24 00:56:00,
2013-01-23 18:01:00,60.9,30.8,30.24,SE,145,0.0,0.0,32,0.00,CLR,SCT,0.00,WeatherDisplay:10.37,2013-01-24 01:01:00,
2013-01-23 18:06:00,60.5,30.5,30.24,SSW,212,0.5,1.2,32,0.00,CLR,SCT,0.00,WeatherDisplay:10.37,2013-01-24 01:06:00,
2013-01-23 18:11:00,60.1,30.9,30.25,SSW,212,0.0,0.0,33,0.00,CLR,SCT,0.00,WeatherDisplay:10.37,2013-01-24 01:11:00,
2013-01-23 18:16:00,59.5,31.1,30.25,SSW,212,0.0,0.0,34,0.00,CLR,SCT,0.00,WeatherDisplay:10.37,2013-01-24 01:16:00,
2013-01-23 18:21:00,58.9,30.6,30.25,SSW,212,0.0,0.0,34,0.00,CLR,SCT,0.00,WeatherDisplay:10.37,2013-01-24 01:21:00,
2013-01-23 18:26:00,58.5,30.9,30.25,SSW,212,0.0,0.0,35,0.00,CLR,SCT,0.00,WeatherDisplay:10.37,2013-01-24 01:26:00,
2013-01-23 18:31:00,58.2,30.7,30.25,SSW,212,0.0,0.0,35,0.00,CLR,SCT,0.00,WeatherDisplay:10.37,2013-01-24 01:31:00,
2013-01-23 18:36:00,57.8,31.0,30.25,SSW,212,0.0,0.0,36,0.00,CLR,SCT,0.00,WeatherDisplay:10.37,2013-01-24 01:36:00,
2013-01-23 18:41:00,57.2,31.1,30.25,SSW,212,0.0,0.0,37,0.00,CLR,SCT,0.00,WeatherDisplay:10.37,2013-01-24 01:41:00,
2013-01-23 18:46:00,56.1,30.8,30.25,SSW,212,0.0,0.0,38,0.00,CLR,SCT,0.00,WeatherDisplay:10.37,2013-01-24 01:46:00,
2013-01-23 18:51:00,54.9,30.4,30.25,SSW,212,0.0,0.0,39,0.00,CLR,SCT,0.00,WeatherDisplay:10.37,2013-01-24 01:51:00,
2013-01-23 18:56:00,54.0,30.8,30.25,SSW,212,0.0,0.0,41,0.00,CLR,SCT,0.00,WeatherDisplay:10.37,2013-01-24 01:56:00,
2013-01-23 19:01:00,53.6,30.4,30.25,SSW,212,0.0,0.0,41,0.00,CLR,SCT,0.00,WeatherDisplay:10.37,2013-01-24 02:01:00,
2013-01-23 19:06:00,53.0,30.5,30.25,SSW,212,0.0,0.0,42,0.00,CLR,SCT,0.00,WeatherDisplay:10.37,2013-01-24 02:06:00,
2013-01-23 19:11:00,52.4,30.5,30.25,SSW,212,0.0,0.0,43,0.00,CLR,SCT,0.00,WeatherDisplay:10.37,2013-01-24 02:11:00,
2013-01-23 19:16:00,51.7,29.9,30.25,SSW,212,0.0,0.0,43,0.00,CLR,SCT,0.00,WeatherDisplay:10.37,2013-01-24 02:16:00,
2013-01-23 19:21:00,50.8,29.6,30.26,SSW,212,0.0,0.0,44,0.00,CLR,SCT,0.00,WeatherDisplay:10.37,2013-01-24 02:21:00,
2013-01-23 19:26:00,49.9,29.9,30.25,SSW,212,0.0,0.0,46,0.00,CLR,SCT,0.00,WeatherDisplay:10.37,2013-01-24 02:26:00,
2013-01-23 19:31:00,49.6,30.2,30.26,SSW,212,0.0,0.0,47,0.00,CLR,SCT,0.00,WeatherDisplay:10.37,2013-01-24 02:31:00,
2013-01-23 19:36:00,49.3,30.4,30.26,SSW,212,0.0,0.0,48,0.00,CLR,SCT,0.00,WeatherDisplay:10.37,2013-01-24 02:36:00,
2013-01-23 19:41:00,49.3,30.4,30.26,SSW,212,0.0,0.0,48,0.00,CLR,SCT,0.00,WeatherDisplay:10.37,2013-01-24 02:41:00,
2013-01-23 19:46:00,49.4,30.5,30.26,SSW,212,0.0,0.0,48,0.00,CLR,SCT,0.00,WeatherDisplay:10.37,2013-01-24 02:46:00,
2013-01-23 19:51:00,49.1,30.7,30.26,SSW,212,0.0,1.2,49,0.00,CLR,SCT,0.00,WeatherDisplay:10.37,2013-01-24 02:51:00,
2013-01-23 19:56:00,49.4,31.0,30.26,SSW,212,0.4,2.3,49,0.00,CLR,SCT,0.00,WeatherDisplay:10.37,2013-01-24 02:56:00,
2013-01-23 20:01:00,49.9,31.0,30.26,SSW,212,0.0,0.0,48,0.00,CLR,SCT,0.00,WeatherDisplay:10.37,2013-01-24 03:01:00,
2013-01-23 20:06:00,50.3,30.8,30.26,SSW,212,0.0,0.0,47,0.00,CLR,SCT,0.00,WeatherDisplay:10.37,2013-01-24 03:06:00,
2013-01-23 20:11:00,50.3,30.8,30.26,SSW,212,0.0,0.0,47,0.00,CLR,SCT,0.00,WeatherDisplay:10.37,2013-01-24 03:11:00,
2013-01-23 20:16:00,50.5,31.0,30.26,West,259,4.0,4.0,47,0.00,CLR,SCT,0.00,WeatherDisplay:10.37,2013-01-24 03:16:00,
2013-01-23 20:21:00,51.3,31.2,30.27,WSW,257,0.5,2.3,46,0.00,CLR,SCT,0.00,WeatherDisplay:10.37,2013-01-24 03:21:00,
2013-01-23 20:26:00,51.6,30.9,30.27,WSW,257,0.0,0.0,45,0.00,CLR,SCT,0.00,WeatherDisplay:10.37,2013-01-24 03:26:00,
2013-01-23 20:31:00,51.3,30.7,30.27,WSW,257,0.0,0.0,45,0.00,CLR,SCT,0.00,WeatherDisplay:10.37,2013-01-24 03:31:00,
2013-01-23 20:36:00,50.9,30.8,30.27,WSW,257,0.0,0.0,46,0.00,CLR,SCT,0.00,WeatherDisplay:10.37,2013-01-24 03:36:00,
2013-01-23 20:41:00,50.3,30.8,30.28,WSW,257,0.0,0.0,47,0.00,CLR,SCT,0.00,WeatherDisplay:10.37,2013-01-24 03:41:00,
2013-01-23 20:46:00,49.8,30.9,30.28,WSW,257,0.0,0.0,48,0.00,CLR,SCT,0.00,WeatherDisplay:10.37,2013-01-24 03:46:00,
2013-01-23 20:51:00,49.4,31.0,30.28,WSW,257,0.0,0.0,49,0.00,CLR,SCT,0.00,WeatherDisplay:10.37,2013-01-24 03:51:00,
2013-01-23 20:56:00,49.1,30.7,30.28,WSW,257,0.0,0.0,49,0.00,CLR,SCT,0.00,WeatherDisplay:10.37,2013-01-24 03:56:00,
2013-01-23 21:01:00,48.9,31.1,30.29,WSW,257,0.0,0.0,50,0.00,CLR,SCT,0.00,WeatherDisplay:10.37,2013-01-24 04:01:00,
2013-01-23 21:06:00,48.7,30.9,30.29,WSW,257,0.0,0.0,50,0.00,CLR,SCT,0.00,WeatherDisplay:10.37,2013-01-24 04:06:00,
2013-01-23 21:11:00,48.5,31.2,30.29,WSW,257,0.0,0.0,51,0.00,CLR,SCT,0.00,WeatherDisplay:10.37,2013-01-24 04:11:00,
2013-01-23 21:16:00,48.2,30.9,30.29,WSW,257,0.0,0.0,51,0.00,CLR,SCT,0.00,WeatherDisplay:10.37,2013-01-24 04:16:00,
2013-01-23 21:21:00,47.9,31.1,30.29,WSW,257,0.0,0.0,52,0.00,CLR,SCT,0.00,WeatherDisplay:10.37,2013-01-24 04:21:00,
2013-01-23 21:26:00,47.8,31.5,30.29,WSW,257,0.0,0.0,53,0.00,CLR,SCT,0.00,WeatherDisplay:10.37,2013-01-24 04:26:00,
2013-01-23 21:31:00,47.9,31.6,30.29,WSW,257,0.1,0.0,53,0.00,CLR,SCT,0.00,WeatherDisplay:10.37,2013-01-24 04:31:00,
2013-01-23 21:36:00,47.9,31.1,30.29,WSW,257,0.0,0.0,52,0.00,CLR,SCT,0.00,WeatherDisplay:10.37,2013-01-24 04:36:00,
2013-01-23 21:41:00,47.9,31.1,30.29,WSW,257,0.0,0.0,52,0.00,CLR,SCT,0.00,WeatherDisplay:10.37,2013-01-24 04:41:00,
2013-01-23 21:46:00,47.9,31.1,30.28,WSW,257,0.0,0.0,52,0.00,CLR,SCT,0.00,WeatherDisplay:10.37,2013-01-24 04:46:00,
2013-01-23 21:51:00,47.7,31.4,30.28,WSW,257,0.0,0.0,53,0.00,CLR,SCT,0.00,WeatherDisplay:10.37,2013-01-24 04:51:00,
2013-01-23 21:56:00,47.7,31.4,30.28,WSW,257,0.0,0.0,53,0.00,CLR,SCT,0.00,WeatherDisplay:10.37,2013-01-24 04:56:00,
2013-01-23 22:00:00,47.7,31.4,30.28,WSW,257,0.0,0.0,53,0.00,CLR,SCT,0.00,WeatherDisplay:10.37,2013-01-24 05:00:00,
2013-01-23 22:01:00,47.7,31.4,30.28,WSW,257,0.0,0.0,53,0.00,CLR,SCT,0.00,WeatherDisplay:10.37,2013-01-24 05:01:00,
2013-01-23 22:03:00,47.6,31.3,30.28,WSW,257,0.0,0.0,53,0.00,CLR,SCT,0.00,WeatherDisplay:10.37,2013-01-24 05:03:00,
2013-01-23 22:06:00,47.5,31.7,30.29,WSW,257,0.1,1.2,54,0.00,CLR,SCT,0.00,WeatherDisplay:10.37,2013-01-24 05:06:00,
2013-01-23 22:11:00,47.9,32.0,30.29,WSW,257,0.0,0.0,54,0.00,CLR,SCT,0.00,WeatherDisplay:10.37,2013-01-24 05:11:00,
2013-01-23 22:16:00,48.2,31.9,30.29,WSW,257,0.0,1.2,53,0.00,CLR,SCT,0.00,WeatherDisplay:10.37,2013-01-24 05:16:00,
2013-01-23 22:21:00,48.3,31.9,30.29,WSW,257,0.0,0.0,53,0.00,CLR,SCT,0.00,WeatherDisplay:10.37,2013-01-24 05:21:00,
2013-01-23 22:26:00,48.3,31.9,30.28,WSW,257,0.0,0.0,53,0.00,CLR,SCT,0.00,WeatherDisplay:10.37,2013-01-24 05:26:00,
2013-01-23 22:31:00,48.6,31.8,30.29,WSW,257,0.0,0.0,52,0.00,CLR,SCT,0.00,WeatherDisplay:10.37,2013-01-24 05:31:00,
2013-01-23 22:36:00,48.9,32.0,30.28,WSW,257,0.0,1.2,52,0.00,CLR,SCT,0.00,WeatherDisplay:10.37,2013-01-24 05:36:00,
2013-01-23 22:41:00,49.0,31.6,30.29,WSW,257,0.0,1.2,51,0.00,CLR,SCT,0.00,WeatherDisplay:10.37,2013-01-24 05:41:00,
2013-01-23 22:46:00,49.1,31.7,30.29,WSW,257,0.0,1.2,51,0.00,CLR,SCT,0.00,WeatherDisplay:10.37,2013-01-24 05:46:00,
2013-01-23 22:51:00,49.0,31.6,30.29,WSW,257,0.0,0.0,51,0.00,CLR,SCT,0.00,WeatherDisplay:10.37,2013-01-24 05:51:00,
2013-01-23 22:56:00,48.8,31.5,30.29,WSW,257,0.0,0.0,51,0.00,CLR,SCT,0.00,WeatherDisplay:10.37,2013-01-24 05:56:00,
2013-01-23 23:01:00,48.6,31.8,30.29,WSW,257,0.0,0.0,52,0.00,CLR,SCT,0.00,WeatherDisplay:10.37,2013-01-24 06:01:00,
2013-01-23 23:06:00,47.9,31.6,30.29,WSW,257,0.1,1.2,53,0.00,CLR,SCT,0.00,WeatherDisplay:10.37,2013-01-24 06:06:00,
2013-01-23 23:11:00,47.7,31.4,30.29,WSW,257,0.0,0.0,53,0.00,CLR,SCT,0.00,WeatherDisplay:10.37,2013-01-24 06:11:00,
2013-01-23 23:16:00,47.5,31.7,30.29,WSW,257,0.0,0.0,54,0.00,CLR,SCT,0.00,WeatherDisplay:10.37,2013-01-24 06:16:00,
2013-01-23 23:21:00,47.3,31.9,30.29,WSW,257,0.0,0.0,55,0.00,CLR,SCT,0.00,WeatherDisplay:10.37,2013-01-24 06:21:00,
2013-01-23 23:26:00,47.7,32.3,30.29,WSW,257,0.8,2.3,55,0.00,CLR,SCT,0.00,WeatherDisplay:10.37,2013-01-24 06:26:00,
2013-01-23 23:31:00,48.4,32.0,30.29,WSW,257,0.0,0.0,53,0.00,CLR,SCT,0.00,WeatherDisplay:10.37,2013-01-24 06:31:00,
2013-01-23 23:36:00,48.6,31.8,30.29,WSW,257,0.0,0.0,52,0.00,CLR,SCT,0.00,WeatherDisplay:10.37,2013-01-24 06:36:00,
2013-01-23 23:41:00,48.6,31.8,30.29,WSW,257,0.0,0.0,52,0.00,CLR,SCT,0.00,WeatherDisplay:10.37,2013-01-24 06:41:00,
2013-01-23 23:46:00,48.5,32.1,30.29,WSW,251,1.2,3.5,53,0.00,CLR,SCT,0.00,WeatherDisplay:10.37,2013-01-24 06:46:00,
2013-01-23 23:51:00,49.0,32.1,30.29,WSW,251,0.0,0.0,52,0.00,CLR,SCT,0.00,WeatherDisplay:10.37,2013-01-24 06:51:00,
2013-01-23 23:56:00,49.2,32.3,30.29,WSW,251,0.0,0.0,52,0.00,CLR,SCT,0.00,WeatherDisplay:10.37,2013-01-24 06:56:00,